India Forums Logo

Yeh Pyaar Na Hoga Kam

India Forums > Forum Index > Yeh Pyaar Na Hoga Kam
The love story of Lehar and Abeer explores prevalent prejudices in modern Indian society where dynamics of separatism have to struggle with unstoppable forces of love and unity.
...
<< | 2 | 3 | 4 | 5 | 6 | 7 | 8 | 9 | 10 | 11 | 12 | 13 | 14 | 15 | 16 | 17 | 18 | 19 | 20 | ... >>
TIDTopic SubjectStart DateLast Entry
1360228shall i make a banner?3/18/2010 11:41:33 PM3/19/2010 4:55:33 PM
1360251every colour suits yami gautam3/19/2010 12:45:08 AM3/19/2010 10:47:35 AM
1360377TAM Ratings - 07/03/2010 to 13/03/20103/19/2010 5:01:52 AM3/22/2010 5:09:15 AM
1360547Picz of Parul 4m 'Teen Diva'3/19/2010 9:30:31 AM3/19/2010 1:46:58 PM
1360598Is Omi ki to mai !!!3/19/2010 10:21:13 AM3/23/2010 2:31:43 AM
1360614Advantage of 9.30 slot!3/19/2010 10:32:14 AM3/20/2010 10:10:51 AM
1360639current track a rip-off?3/19/2010 10:56:38 AM3/19/2010 11:56:54 AM
1360723abher scenes today3/19/2010 12:23:46 PM3/19/2010 2:14:09 PM
136079919th March Written Updt:AbHer r Exposed Before Omi3/19/2010 2:00:25 PM3/21/2010 4:20:43 PM
1360815Adda Annex 19/3:Cupid's Arrow!read Parm's post pg73/19/2010 2:31:45 PM3/23/2010 8:42:15 AM
1360859YPNHK 19th Mar10 OnL/DownL/Pics *EHQ*3/19/2010 3:40:17 PM3/20/2010 7:43:17 PM
1360910I think TT will b havin GK interview - Pic3/19/2010 6:13:47 PM3/20/2010 11:04:57 AM
1360939just express ur love leher:)3/19/2010 8:03:18 PM3/19/2010 8:03:18 PM
1360983GK in windows moblie and Yamaha ads! so cute!3/19/2010 10:28:34 PM3/20/2010 8:04:33 AM
1360985Deepa ka plan...3/19/2010 10:30:01 PM3/20/2010 1:26:06 PM
1361018Parwa ka Haq!!!3/19/2010 11:52:29 PM3/22/2010 2:05:23 AM
1361045Prithvi & Abeer T-O-T-A-L-L-Y different with pics3/20/2010 12:39:05 AM5/21/2010 6:24:07 AM
1361118Bad Feeling :(3/20/2010 3:09:40 AM3/21/2010 8:42:36 PM
1361205Abeer's attitude3/20/2010 6:25:09 AM4/2/2010 6:22:01 PM
1361211parul gulati pics3/20/2010 6:38:18 AM3/20/2010 12:53:46 PM
1361227Leher and Omi3/20/2010 7:48:09 AM3/20/2010 1:41:02 PM
1361302Gaurav Khanna Website3/20/2010 10:10:00 AM3/23/2010 10:05:41 AM
1361455GK coming soon on Telly Tadka.3/20/2010 2:13:02 PM3/22/2010 8:52:38 PM
1361589Yami in Showtime3/20/2010 11:17:25 PM3/27/2010 5:39:12 AM
1361806D/L YPNHK~OMI's Interest:LEHER-22 March 2010Promo3/21/2010 10:30:16 AM3/22/2010 2:10:11 AM
1362073Omi track3/22/2010 2:42:25 AM3/22/2010 6:44:30 AM
1362177GOTW - Movie Game3/22/2010 5:55:55 AM4/20/2010 9:11:19 AM
1362196D/L AbHar Scene ~ ABEER Upset-19 MARCH SPL !!DHQ!3/22/2010 6:59:32 AM3/22/2010 9:12:04 AM
1362298villain :(3/22/2010 10:00:31 AM3/22/2010 10:00:31 AM
1362303We love you Bittan:)3/22/2010 10:04:23 AM3/23/2010 8:46:59 AM
1362349YPNHK ~~~Written Update~~~22th MARCH 10 (MONDAY)3/22/2010 10:44:19 AM3/24/2010 8:44:56 AM
1362449Adda Annex 22/3: Ek hazaaron mein meri behna hai3/22/2010 12:25:59 PM3/23/2010 11:39:39 AM
1362468Babhi3/22/2010 12:43:36 PM3/22/2010 5:34:41 PM
1362510D/L YPNHK ~ PRANK on ABEER - 23 March Promo !!DHQ!3/22/2010 1:35:33 PM3/23/2010 8:41:35 AM
1362629YPNHK 22ND Mar10 OnL/DownL/Pics *EHQ*3/22/2010 5:52:38 PM3/23/2010 3:20:58 AM
1362720Surprise From Gaurav3/22/2010 10:52:04 PM3/23/2010 8:55:43 PM
1362872D/L AbHar Scene23 ~ AAOGE JAB Song Seq-22March SPL3/23/2010 5:13:07 AM3/23/2010 7:25:57 AM
1363008Another AbHer VM3/23/2010 9:29:08 AM3/25/2010 4:52:01 AM
1363046Written Update~23rd March~hotel Shalini Palace :D3/23/2010 10:12:25 AM3/24/2010 9:21:08 AM
1363062Tanai's VM Gallery(New VM AddedPage 2)3/23/2010 10:29:11 AM7/17/2010 9:36:49 AM
1363145Adda Annex 23/03 ~ the Good,Bad and the Evil3/23/2010 11:33:06 AM3/24/2010 2:13:43 PM
1363268D/L YPNHK & LTL - 24 March Promo !!DHQ!!3/23/2010 2:13:13 PM3/23/2010 3:09:19 PM
1363341YPNHK 23rd Mar10 OnL/DownL/Pics *EHQ*3/23/2010 4:32:45 PM3/23/2010 7:35:54 PM
1363385good plan by bittan:)3/23/2010 5:41:01 PM3/23/2010 5:41:01 PM
1363415OMG.. I missed all this.. VM of AbeHer..3/23/2010 7:34:00 PM3/31/2010 6:55:59 AM
1363532do you think omi is hadi between abheer and leher3/24/2010 12:50:29 AM3/24/2010 12:53:38 AM
1363631Yami/Leher wearing the same suit...3/24/2010 4:38:39 AM3/25/2010 7:08:53 PM
1363632GK & Yami's ranking gone down3/24/2010 4:45:59 AM3/25/2010 6:49:23 PM
1363693Random musings...3/24/2010 6:52:42 AM3/29/2010 11:49:30 AM
1363826~*Raunak of the Week*~ the one thats so much fun !3/24/2010 9:58:47 AM3/28/2010 1:41:19 PM
1363834Leher - BILLI :) hehehe... :)3/24/2010 10:06:58 AM3/30/2010 5:59:16 AM
1363845Written Update~24th March~ kehdo,I love u Abeer :)3/24/2010 10:22:00 AM3/25/2010 10:08:53 PM
1363933GK pics utube video3/24/2010 11:43:55 AM3/25/2010 8:31:03 PM
1364024CV's are ruining this show3/24/2010 1:00:27 PM3/24/2010 1:27:44 PM
1364061Adda Annex 24/3:Kul's Disco-Dancing Act..3/24/2010 2:07:27 PM3/25/2010 8:27:44 PM
1364065D/L YPNHK & LTL - 25 March 2010 Promo !!DHQ!!3/24/2010 2:16:22 PM3/24/2010 8:28:07 PM
1364154YPNHK 24th Mar10 OnL/DownL/Pics *EHQ*3/24/2010 4:52:03 PM3/24/2010 4:52:03 PM
1364644OMG! kya yehi pyar hai ....3/25/2010 10:02:27 AM3/26/2010 5:57:04 AM
1364698TAM Ratings 14/03/10 to 20/03/10- More Info. Added3/25/2010 10:46:31 AM3/26/2010 4:06:09 AM
1364717Adda Annex 03/25:Haan Yahi Pyar Hai :)3/25/2010 11:13:52 AM3/26/2010 11:52:06 AM
1364964YPNHK 25th Mar10 OnL/DownL/Pics *EHQ*3/25/2010 6:04:42 PM3/29/2010 8:49:25 AM
136512825th march episode was too gud3/26/2010 1:12:13 AM3/26/2010 1:18:55 PM
1365130wish dadi dies in stamped3/26/2010 1:15:57 AM3/27/2010 7:27:31 PM
1365187Kya Yehi Pyar Hai3/26/2010 3:48:13 AM3/30/2010 5:57:27 AM
1365258Buck up Abeer, send the coffee!3/26/2010 6:13:25 AM3/26/2010 9:16:40 AM
1365287Dadi a casualty3/26/2010 6:48:16 AM3/26/2010 6:48:16 AM
1365307make up your mind3/26/2010 7:10:11 AM3/28/2010 12:42:29 PM
1365367New Promo - Leher Worried3/26/2010 8:26:15 AM3/26/2010 12:32:02 PM
1365463~Abeer where art thou?~3/26/2010 10:40:31 AM3/26/2010 9:30:28 PM
1365507The Writing Team Changed!! Updt Pg 53/26/2010 11:21:31 AM3/30/2010 8:44:10 AM
1365534Adda Annex 3/26: Kaalibaadi Ki Katha3/26/2010 11:53:51 AM3/29/2010 1:59:25 PM
136558626th March Written Update:The Grt Temple Fiasco..3/26/2010 12:58:37 PM3/27/2010 5:23:40 AM
1365609~Abher Confess~ an FF~UPDT PART 2 pg 103/26/2010 1:45:50 PM3/28/2010 8:52:20 PM
1365739YPNHK 26th Mar10 OnL/DownL/Pics *EHQ*3/26/2010 6:34:11 PM3/27/2010 7:13:12 AM
1365746Leher's red suit3/26/2010 7:01:01 PM3/29/2010 3:51:14 AM
<< | 2 | 3 | 4 | 5 | 6 | 7 | 8 | 9 | 10 | 11 | 12 | 13 | 14 | 15 | 16 | 17 | 18 | 19 | 20 | ... >>